sat.trackr.live / text

‹ back to catalog

SAMSAT-IONOSPHERE (RS7*)

NORAD 61784 · 2024-199BB

PAYLOAD ACTIVE UNKNOWN

§ Identity

Operator
Country
CIS
Launch date
2024-11-04
Launch site
VOSTO
Launch vehicle
Mass (kg)
RCS (m²)

Purposes: comms

External: N2YO · Heavens-Above · Gunter

§ Orbital elements

Epoch: 2026-09-19T22:22:25.611168Z

Period
91.89 min
Inclination
97.2745°
Eccentricity
0.0003578
Mean motion
15.67137382 rev/d
Perigee alt
364.7 km
Apogee alt
369.5 km
Semi-major
6,745.2 km
B*
5.5867e-4
RAAN
141.5815°
Arg perigee
289.4903°
Mean anomaly
70.5971°
Rev number
15,235

§ Raw data

SAMSAT-IONOSPHERE (RS7*)1 61784U 24199BB  26262.93224087  .00059873  00000+0  55867-3 0  99992 61784  97.2745 141.5815 0003578 289.4903  70.5971 15.67137382152353

JSON: /api/v1/satellites/61784 · /tle

For live sub-satellite position, see the globe view (requires WebGL).

§ Visibility from observer

Set your observer location to see the next 7 days of passes ≥ 10°. The values pass through the URL so the page stays shareable.

No JS? Fill the form by hand. The geolocation button needs JavaScript.

§ Radio — SatNOGS DB

ModeDescriptionDownlinkUplink
FSK FSK1k2 - AX.25 Beacon 437.400 MHz

1 transmitter · refreshed weekly from db.satnogs.org